• Join FlightAware (Why Join?)
  • Login
  • US Flag 
09:15AM EDT


 

Airport Tracker/Info


-or-


 

Live Flight TrackerFlight Track Log ✈ ASQ6041 ✈ 14-Sep-2013 ✈ KLNK - KDEN

Flight Track Log - Related Links

Times and Time Zones

All times are in EDT time to prevent confusion due to time zone crossing. See the ASQ6041 flight status page for this flight to view local times or setup timezone preferences in your user account.

Time Position Orientation Groundspeed Altitude Reporting Facility
EDT Latitude Longitude Course Direction KTS MPH feet Rate Location/Type
02:06PM 40.7831 -96.8039 226° Southwest 205 236 3,900  Level Minneapolis Center
02:06PM 40.7936 -96.8144 323° Northwest 184 212 4,000 2,160 Climbing Minneapolis Center
02:07PM 40.7736 -96.8928 251° West 259 298 6,100 2,220 Climbing Minneapolis Center
02:07PM 40.7850 -96.9033 325° Northwest 232 267 6,300 2,460 Climbing Minneapolis Center
02:08PM 40.8056 -97.2543 257° West  Level Estimated
02:08PM 40.7744 -96.9989 262° West 257 296 8,900  Level Minneapolis Center
02:09PM 40.7878 -97.3768 259° West  Level FlightAware Approximate
02:09PM 40.7639 -97.0942 262° West 262 302 11,200  Level Minneapolis Center
02:10PM 40.7761 -97.5004 261° West  Level Estimated
02:10PM 40.7536 -97.1781 261° West 278 320 12,400  Level Minneapolis Center
02:11PM 40.7353 -97.3436 262° West 321 369 14,300 1,560 Climbing Minneapolis Center
02:12PM 40.7208 -97.4672 261° West 341 392 15,700 1,320 Climbing Minneapolis Center
02:13PM 40.7061 -97.5931 261° West 346 398 17,100 1,260 Climbing Minneapolis Center
02:14PM 40.6906 -97.7228 261° West 354 407 18,300 1,200 Climbing Minneapolis Center
02:15PM 40.6756 -97.8528 261° West 357 411 19,600 1,440 Climbing Minneapolis Center
02:16PM 40.6592 -97.9836 261° West 360 414 21,300 1,500 Climbing Minneapolis Center
02:17PM 40.6436 -98.1103 261° West 354 407 22,800 1,620 Climbing Minneapolis Center
02:18PM 40.6250 -98.2619 261° West 351 404 24,700 1,560 Climbing Minneapolis Center
02:19PM 40.6089 -98.3878 260° West 349 402 26,100 1,440 Climbing Minneapolis Center
02:20PM 40.6125 -98.5128 272° West 345 397 27,700 1,560 Climbing Minneapolis Center
02:21PM 40.6219 -98.6381 276° West 345 397 29,400 1,500 Climbing Minneapolis Center
02:22PM 40.6333 -98.7592 277° West 336 387 30,900 1,200 Climbing Minneapolis Center
02:23PM 40.6447 -98.8817 277° West 334 384 31,900 480 Climbing Minneapolis Center
02:24PM 40.6553 -99.0106 276° West 346 398 32,000 60 Climbing Minneapolis Center
02:25PM 40.6681 -99.1528 277° West 375 432 32,100 720 Climbing Minneapolis Center
02:26PM 40.6806 -99.2981 277° West 392 451 33,500 1,560 Climbing Minneapolis Center
02:27PM 40.6947 -99.4650 276° West 384 442 35,300 1,200 Climbing Minneapolis Center
02:28PM 40.7042 -99.5717 277° West 373 429 36,000 300 Climbing Minneapolis Center
02:29PM 40.7169 -99.7367 276° West 374 430 36,000  Level Minneapolis Center
02:30PM 40.7283 -99.8742 276° West 376 433 36,000  Level Minneapolis Center
02:31PM 40.7383 -100.0136 275° West 379 436 36,000  Level Minneapolis Center
02:33PM 40.7497 -100.1522 276° West 380 437 36,000  Level Minneapolis Center
02:34PM 40.7611 -100.2947 276° West 384 442 36,000  Level Minneapolis Center
02:35PM 40.7681 -100.4361 274° West 387 445 36,000  Level Minneapolis Center
02:36PM 40.7372 -100.6003 256° West 385 443 36,000  Level Minneapolis Center
02:37PM 40.7056 -100.7883 258° West 385 443 36,000  Level Denver Center
02:38PM 40.6869 -100.9211 260° West 381 438 36,000  Level Denver Center
02:39PM 40.6653 -101.0706 259° West 373 429 36,000  Level Denver Center
02:40PM 40.6461 -101.1994 259° West 373 429 36,000  Level Denver Center
02:41PM 40.6233 -101.3489 259° West 372 428 36,000  Level Denver Center
02:42PM 40.6028 -101.4761 258° West 373 429 36,000  Level Denver Center
02:43PM 40.5800 -101.6236 259° West 368 423 36,000  Level Denver Center
02:44PM 40.5603 -101.7506 258° West 370 426 36,000  Level Denver Center
02:45PM 40.5403 -101.8769 258° West 369 425 36,000  Level Denver Center
02:46PM 40.5156 -102.0247 258° West 371 427 36,000  Level Denver Center
02:47PM 40.4939 -102.1536 258° West 377 434 36,000  Level Denver Center
02:48PM 40.4700 -102.3053 258° West 380 437 36,000  Level Denver Center
02:49PM 40.4475 -102.4339 257° West 379 436 36,000  Level Denver Center
02:50PM 40.4219 -102.5831 257° West 376 433 36,000  Level Denver Center
02:51PM 40.4036 -102.7058 259° West 372 428 36,000  Level Denver Center
02:53PM 40.3806 -102.8419 258° West 383 441 36,000 -480 Level Denver Center
02:54PM 40.3550 -102.9869 257° West 404 465 35,100 -1,620 Descending Denver Center
02:55PM 40.3294 -103.1358 257° West 420 483 32,800 -2,520 Descending Denver Center
02:56PM 40.2989 -103.3164 258° West 428 493 30,000 -2,460 Descending Denver Center
02:57PM 40.2717 -103.4694 257° West 433 498 27,800 -2,280 Descending Denver Center
02:58PM 40.2442 -103.6228 257° West 433 498 25,400 -2,400 Descending Denver Center
02:59PM 40.2186 -103.7647 257° West 386 444 23,000 -2,100 Descending Denver Center
03:00PM 40.1878 -103.8772 250° West 327 376 21,200 -1,740 Descending Denver Center
03:01PM 40.1367 -103.9892 239° Southwest 324 373 19,500 -1,620 Descending Denver Center
03:02PM 40.0908 -104.0881 239° Southwest 328 377 17,900 -1,560 Descending Denver Center
03:04PM 40.0000 -104.2667 236° Southwest 302 348 15,200 -1,380 Descending Denver TRACON
03:04PM 39.9667 -104.3500 242° Southwest 304 350 14,300 -1,080 Descending Denver TRACON
03:05PM 39.9333 -104.4333 242° Southwest 283 326 13,200 -1,140 Descending Denver TRACON
03:06PM 39.8833 -104.5000 226° Southwest 263 303 12,200 -1,200 Descending Denver TRACON
03:07PM 39.8444 -104.5003 180° South 255 293 11,500 -960 Descending Denver Center
03:08PM 39.7744 -104.5011 181° South 251 289 10,800 -960 Descending Denver Center
03:09PM 39.7053 -104.5028 181° South 250 288 9,600 -1,020 Descending Denver Center
03:10PM 39.6389 -104.5047 181° South 223 257 8,700 -840 Descending Denver Center
03:11PM 39.6261 -104.5783 257° West 223 257 8,000 -420 Descending Denver Center
03:12PM 39.6614 -104.6350 309° West 233 268 7,900 -300 Descending Denver Center
03:13PM 39.7239 -104.6433 354° North 212 244 7,400 -720 Descending Denver Center
03:14PM 39.7769 -104.6425 North 195 224 6,500 -960 Descending Denver Center
03:15PM 39.8233 -104.6417 North 160 184 5,500 -600 Descending Denver Center
03:16PM 39.8517 -104.6417 360° North 135 155 5,300 -240 Descending Denver Center